Location: Anne Acres
(38.7004°N, 75.0827°W)
Time: 07:46:11
(UTC+00:00)

Courier 1B Rocket - Pass Details

Date: 19 November 2024
Orbit: 920 x 1201 km, 28.2° (Epoch: 06 December)

Event Time Altitude Azimuth Distance (km) Brightness Sun altitude
Rises 23:24:43 0° 258° (WSW) 3,724 9.7 -19.6°
Reaches altitude 10° 23:29:10 10° 232° (SW) 2,709 8.2 -20.4°
Maximum altitude 23:31:52 13° 207° (SSW) 2,473 7.6 -20.9°
Drops below altitude 10° 23:34:32 10° 182° (S) 2,645 7.4 -21.5°
Sets 23:38:46 0° 154° (SSE) 3,554 7.8 -22.3°
